{"data":{"norad_id":25989,"epoch":"2026-09-20T02:15:28.951776Z","epoch_age_seconds":46255,"freshness":"FRESH","line1":"1 25989U 99066A   26263.09408509  .00000133  00000+0  00000+0 0  9992","line2":"2 25989  63.9890 281.7554 4648505  63.1920   0.1280  0.50125912 23488","mean_motion":0.50125912,"eccentricity":0.4648505,"inclination_deg":63.989,"raan_deg":281.7554,"arg_perigee_deg":63.192,"mean_anomaly_deg":0.128,"bstar":0,"rev_number":2348,"period_min":2872.7656865375,"perigee_km":29445.425613206,"apogee_km":91680.748611846,"semimajor_km":66941.224112526,"source":"CELESTRAK","updated_at":"2026-09-20T09:00:47.140206Z"}}